[[{"header":{"parameterUnit":"m.s-1","parameterCategory":1,"la1":30.2991,"la2":30.254,"lo1":-89.0895,"lo2":-89.0444,"dy":0.0017,"dx":0.0017,"nx":28,"ny":28,"refTime":"2025-06-18T21:00:00:Z","depth":0,"parameterNumber":2,"parameterNumberName":"U-component_of_WINDS"},"data":[0,0,0,0,0,0,0,0,0,0,0,0,0,0,0,0,0,0,0,0,0,0,0,0,0,0,0,0,0,0,0,0,0,0,0,0,0,0,0,0,0,0,0,0,0,0,0,0,0,0,0,0,0,0,0,0,0,0,2.6661,2.6661,0,2.6717,2.6718,2.6718,2.6669,2.6667,2.6664,2.6663,2.6725,2.6728,2.6732,0,0,0,0,0,0,0,0,0,0,0,0,0,2.6515,2.6518,2.6661,2.6661,2.6662,2.6717,2.6718,2.6719,2.6669,2.6666,2.6664,2.6662,2.6724,2.6728,2.6732,0,0,0,0,0,0,0,0,0,0,0,0,0,2.6576,2.6519,2.6661,2.6644,2.6643,2.6717,2.6718,2.6719,2.6669,2.6666,2.6663,2.666,2.6722,2.6727,2.6733,2.6828,0,0,2.6749,2.6751,0,0,0,0,0,0,0,0,2.6572,2.6581,2.6646,2.6645,2.6644,2.6683,2.6689,2.6756,2.667,2.666,2.6662,2.6659,2.6714,2.6719,2.6737,2.683,2.6833,2.675,2.6753,2.6755,2.6757,0,0,0,0,0,0,0,2.6568,2.6578,2.6683,2.6647,2.6646,2.6635,2.664,2.6702,2.6703,2.666,2.6657,2.6664,2.6713,2.6732,2.6738,2.6834,2.6749,2.6754,2.6757,2.676,2.7011,2.7015,0,0,0,0,0,0,2.6565,2.6575,2.6681,2.6685,2.66,2.664,2.6646,2.6673,2.6702,2.6704,2.6666,2.6661,2.6724,2.6732,2.674,2.6855,2.6755,2.676,2.6763,2.7008,2.7012,2.7016,0,0,0,0,0,0,2.6562,2.6575,2.6679,2.6629,2.6641,2.6646,2.6677,2.6676,2.6695,2.6707,2.6708,2.6686,2.6722,2.6732,2.6807,2.6857,2.6763,2.6767,2.7004,2.7009,2.7014,2.7085,0,0,0,0,0,0,2.6558,2.6574,2.6609,2.663,2.6644,2.6743,2.668,2.668,2.6704,2.6698,2.6725,2.6727,2.672,2.6799,2.6812,2.6862,2.6772,2.6999,2.7006,2.7012,2.7079,2.7092,2.7104,0,0,0,0,0,2.6553,2.6627,2.6611,2.6624,2.6688,2.6746,2.6755,2.6745,2.6708,2.6745,2.6752,2.6726,2.6849,2.6807,2.6821,2.6874,2.6996,2.7004,2.7012,2.7073,2.709,2.7104,0,0,0,0,0,0,2.6613,2.6629,2.6612,2.6694,2.6719,2.6738,2.6783,2.6762,2.6799,2.6792,2.6779,2.6786,2.6864,2.6876,2.6829,2.6969,2.6917,2.6928,2.6958,2.6974,2.6987,2.6983,2.6776,0,0,0,0,0,2.6635,2.668,2.6692,2.6765,2.6778,2.6778,2.6803,2.6794,2.6819,2.683,2.6843,2.687,2.6915,2.6945,2.6987,2.7079,2.7086,2.7123,2.7136,2.7146,2.7157,2.7209,2.7226,2.7041,2.7041,2.7041,0,0,2.6683,2.6697,2.6727,2.6777,2.6795,2.6844,2.6787,2.684,2.6877,2.6838,2.6909,2.692,2.695,2.7034,2.7072,2.7047,2.7209,2.7156,2.7164,2.7169,2.7219,2.7237,2.7252,2.7047,2.7046,2.7045,0,0,2.6795,2.6809,2.6872,2.6891,2.6919,2.6919,2.6934,2.6956,2.6961,2.7032,2.7005,2.7048,2.7125,2.7148,2.717,2.7292,2.727,2.7306,2.7374,2.7425,2.744,2.7453,2.7499,2.7516,2.7316,2.7316,2.7316,0,2.6851,2.6922,2.6907,2.6963,2.6987,2.6953,2.7018,2.7037,2.7078,2.7097,2.7067,2.7164,2.7181,2.7272,2.7302,2.732,2.7339,2.7304,2.7439,2.7451,2.7463,2.7507,2.7525,2.7321,2.732,2.732,2.7319,0,2.6991,2.704,2.7088,2.7127,2.7157,2.7217,2.7213,2.7245,2.7233,2.7237,2.7311,2.733,2.7377,2.7397,2.7386,2.7487,2.7471,2.744,2.7388,2.7486,2.7527,2.7543,2.7327,2.7325,2.7324,2.7323,0,0,2.7143,2.7174,2.7192,2.721,2.7239,2.7278,2.7337,2.7381,2.741,2.7439,2.7491,2.7557,2.7529,2.7554,2.7545,2.759,2.7689,2.7554,2.7555,2.7581,2.7805,2.783,2.7849,2.7673,2.7677,2.7679,2.7803,0,2.7258,2.736,2.735,2.7448,2.7495,2.7464,2.7516,2.754,2.7546,2.7588,2.7594,2.7642,2.76,2.7616,2.7658,2.7668,2.7734,2.7658,2.7724,2.7726,2.772,2.787,2.7896,2.8013,2.7819,2.7822,2.7824,0,2.7406,2.7441,2.7543,2.7566,2.7586,2.7633,2.7674,2.7713,2.7741,2.7742,2.777,2.7754,2.7816,2.7761,2.7848,2.7797,2.7823,2.7832,2.7836,2.7844,2.7783,2.7885,2.8049,2.8068,2.7848,2.7846,2.7845,0,2.7511,2.7582,2.7654,2.767,2.7698,2.7732,2.7746,2.777,2.7798,2.7834,2.7852,2.7895,2.792,2.7954,2.7951,2.791,2.804,2.7984,2.8045,2.8045,2.8076,2.8074,2.8249,2.8088,2.8088,2.8088,2.8087,0,2.7642,2.7707,2.7701,2.7745,2.7818,2.7806,2.7878,2.7888,2.791,2.7957,2.7932,2.7977,2.7969,2.8014,2.8012,2.8086,2.8096,2.8101,2.81,2.8105,2.8105,2.8123,2.8116,2.8092,2.8091,2.809,2.8089,0,2.7772,2.777,2.7846,2.7866,2.7873,2.7926,2.7944,2.7987,2.799,2.805,2.8063,2.8069,2.8122,2.8121,2.8181,2.8179,2.8271,2.8259,2.8262,2.826,2.8322,2.8317,2.8517,2.8544,2.8363,2.8365,2.8366,0,2.7857,2.7907,2.7932,2.7961,2.7977,2.8024,2.8052,2.8042,2.8073,2.8109,2.8149,2.8198,2.8238,2.8324,2.8334,2.838,2.8372,2.8438,2.8379,2.8382,2.8376,2.8374,2.838,2.8451,2.8453,2.8455,2.8456,0,2.801,2.8007,2.8048,2.809,2.8124,2.8156,2.8186,2.8212,2.8205,2.8242,2.8295,2.8325,2.8386,2.8437,2.8482,2.8498,2.8478,2.8474,2.8492,2.8498,2.8499,2.8502,2.8297,2.8471,2.8469,2.8468,2.8467,2.8467,2.8122,2.8165,2.819,2.8238,2.8259,2.8288,2.8329,2.8338,2.8381,2.843,2.8421,2.8481,2.8509,2.8567,2.8587,2.8635,2.8611,2.8635,2.8642,2.8649,2.8657,2.8489,2.8642,2.8642,2.8642,2.8641,2.8641,0,2.8276,2.8291,2.8334,2.8376,2.8414,2.8389,2.8421,2.8455,2.8508,2.8535,2.8575,2.8637,2.8686,2.87,2.8749,2.8785,2.8777,2.8798,2.8797,2.8801,2.8674,2.8655,2.8804,2.8804,2.8804,2.8804,2.8803,2.8803,2.8361,2.8433,2.8434,2.8517,2.8531,2.8589,2.861,2.8637,2.8659,2.8729,2.877,2.8778,2.8801,2.8851,2.8896,2.8899,2.8919,2.8945,2.8945,2.8826,2.881,2.8794,2.8777,2.8949,2.8949,2.9068,2.9069,2.907]},{"header":{"parameterUnit":"m.s-1","parameterCategory":1,"la1":30.2991,"la2":30.254,"lo1":-89.0895,"lo2":-89.0444,"dy":0.0017,"dx":0.0017,"nx":28,"ny":28,"refTime":"2025-06-18T21:00:00:Z","depth":0,"parameterNumber":3,"parameterNumberName":"V-component_of_WINDS"},"data":[0,0,0,0,0,0,0,0,0,0,0,0,0,0,0,0,0,0,0,0,0,0,0,0,0,0,0,0,0,0,0,0,0,0,0,0,0,0,0,0,0,0,0,0,0,0,0,0,0,0,0,0,0,0,0,0,0,0,1.112,1.112,0,1.1194,1.1195,1.1196,1.1205,1.1204,1.1204,1.1203,1.1279,1.1282,1.1285,0,0,0,0,0,0,0,0,0,0,0,0,0,1.0981,1.0984,1.1119,1.112,1.1121,1.1194,1.1195,1.1196,1.1205,1.1204,1.1203,1.1203,1.1279,1.1282,1.1285,0,0,0,0,0,0,0,0,0,0,0,0,0,1.1047,1.0985,1.1119,1.1135,1.1137,1.1194,1.1195,1.1196,1.1205,1.1204,1.1203,1.1202,1.1277,1.1281,1.1285,1.1332,0,0,1.1298,1.13,0,0,0,0,0,0,0,0,1.1043,1.1052,1.1131,1.1134,1.1136,1.1189,1.1174,1.1242,1.1206,1.1179,1.1203,1.1202,1.125,1.1256,1.1273,1.1336,1.1339,1.1298,1.1301,1.1302,1.1304,0,0,0,0,0,0,0,1.1039,1.1049,1.1149,1.1133,1.1135,1.1137,1.1145,1.1187,1.122,1.1182,1.1182,1.1191,1.1251,1.1269,1.1275,1.134,1.1298,1.1302,1.1304,1.1306,1.144,1.1441,0,0,0,0,0,0,1.1032,1.1045,1.1147,1.1151,1.1086,1.114,1.1149,1.1173,1.122,1.1226,1.1192,1.1191,1.1263,1.127,1.1277,1.1332,1.1302,1.1306,1.1309,1.1439,1.144,1.1442,0,0,0,0,0,0,1.1029,1.1041,1.1144,1.1098,1.1112,1.1144,1.1171,1.1175,1.1193,1.1227,1.1233,1.1204,1.1262,1.1272,1.1317,1.1335,1.1308,1.1312,1.1438,1.1439,1.1441,1.1444,0,0,0,0,0,0,1.1025,1.104,1.1059,1.1099,1.1114,1.1184,1.1172,1.1178,1.12,1.12,1.124,1.1246,1.1262,1.1311,1.1321,1.134,1.1315,1.1436,1.1439,1.1441,1.1443,1.1446,1.1449,0,0,0,0,0,1.102,1.1058,1.106,1.1072,1.1139,1.1185,1.1193,1.1211,1.1202,1.122,1.1241,1.1245,1.1331,1.1316,1.1328,1.1348,1.1435,1.1438,1.144,1.1441,1.1445,1.1448,0,0,0,0,0,0,1.1021,1.1064,1.1066,1.1119,1.1148,1.1186,1.1211,1.1215,1.1248,1.1246,1.1266,1.1275,1.1319,1.1338,1.132,1.1393,1.1382,1.1387,1.1379,1.1383,1.1386,1.138,1.1318,0,0,0,0,0,1.1027,1.1061,1.1097,1.1139,1.1153,1.1179,1.12,1.121,1.1241,1.1254,1.1279,1.1308,1.1341,1.1363,1.1397,1.1445,1.1452,1.1464,1.1467,1.1469,1.1473,1.1496,1.1501,1.145,1.145,1.145,0,0,1.1041,1.1068,1.1089,1.114,1.1164,1.1197,1.119,1.1227,1.1251,1.126,1.1303,1.1322,1.1356,1.1402,1.1424,1.1419,1.1489,1.1473,1.1474,1.1477,1.1499,1.1504,1.1508,1.1452,1.1451,1.1451,0,0,1.1082,1.1107,1.1143,1.1166,1.1202,1.1218,1.1226,1.1263,1.1275,1.1319,1.1325,1.1354,1.1412,1.1435,1.1454,1.1497,1.1501,1.1508,1.1523,1.1545,1.1549,1.1553,1.1566,1.157,1.1512,1.1512,1.1512,0,1.1094,1.1145,1.1162,1.1197,1.1218,1.1225,1.1261,1.1282,1.1326,1.134,1.1334,1.1404,1.1428,1.1477,1.1487,1.1504,1.1512,1.1504,1.1547,1.1551,1.1555,1.1567,1.1572,1.1512,1.1512,1.1512,1.1512,0,1.1157,1.1192,1.1217,1.1257,1.1281,1.1316,1.1336,1.1358,1.1365,1.1381,1.1423,1.1451,1.1488,1.15,1.1509,1.155,1.1546,1.1543,1.1533,1.156,1.1572,1.1577,1.1513,1.1512,1.1512,1.1512,0,0,1.1204,1.125,1.1258,1.1275,1.1312,1.1339,1.1372,1.1407,1.1424,1.1453,1.148,1.1527,1.1524,1.1545,1.1555,1.1575,1.1604,1.157,1.1571,1.1573,1.1647,1.1648,1.1653,1.1606,1.1607,1.1608,1.1643,0,1.1247,1.1308,1.1322,1.1373,1.1403,1.1409,1.1437,1.1462,1.1477,1.1504,1.152,1.1552,1.1546,1.1559,1.1578,1.1596,1.1619,1.1594,1.163,1.1631,1.162,1.166,1.1662,1.1695,1.1648,1.1649,1.165,0,1.1307,1.1335,1.139,1.1418,1.1432,1.1458,1.1488,1.1515,1.1541,1.155,1.1572,1.1579,1.1612,1.1599,1.1643,1.1625,1.164,1.1651,1.1652,1.1656,1.1642,1.1663,1.1706,1.171,1.1658,1.1657,1.1657,0,1.1332,1.1384,1.1422,1.1436,1.1472,1.1489,1.1505,1.153,1.1549,1.1576,1.1587,1.1617,1.1634,1.1656,1.167,1.166,1.1711,1.1701,1.1718,1.1718,1.1729,1.1728,1.1774,1.1741,1.1741,1.174,1.174,0,1.1379,1.1412,1.1433,1.1457,1.1492,1.1506,1.154,1.1555,1.1577,1.1602,1.1608,1.1631,1.1649,1.1673,1.1684,1.1717,1.1725,1.1732,1.1734,1.1731,1.173,1.1741,1.1738,1.1742,1.1741,1.1741,1.1741,0,1.1414,1.143,1.1471,1.15,1.1508,1.1532,1.1556,1.1578,1.1591,1.1622,1.163,1.1651,1.168,1.1695,1.1733,1.174,1.1775,1.1778,1.1766,1.1767,1.1783,1.178,1.1836,1.1843,1.1807,1.1807,1.1807,0,1.1442,1.1467,1.1497,1.1513,1.1529,1.1556,1.1574,1.1588,1.1606,1.1636,1.1653,1.1682,1.1706,1.1752,1.1769,1.1796,1.1798,1.1816,1.1802,1.1797,1.1796,1.1794,1.1795,1.1818,1.1818,1.1819,1.1819,0,1.149,1.1495,1.1521,1.1549,1.157,1.1592,1.1615,1.1628,1.1644,1.1664,1.1693,1.1712,1.1747,1.1775,1.1803,1.1817,1.182,1.1822,1.1827,1.1824,1.1816,1.1818,1.1771,1.1821,1.1821,1.1821,1.1821,1.1821,1.1521,1.1541,1.1564,1.1592,1.1609,1.1629,1.1649,1.1664,1.1688,1.1718,1.1724,1.1754,1.1776,1.1813,1.1828,1.1851,1.1847,1.1855,1.1857,1.1859,1.1858,1.1812,1.1856,1.1856,1.1856,1.1856,1.1856,0,1.1566,1.1581,1.1606,1.1635,1.1656,1.1656,1.1679,1.1696,1.1722,1.1743,1.1765,1.1796,1.1822,1.1841,1.1866,1.1881,1.1882,1.1887,1.1886,1.1888,1.1861,1.1853,1.1885,1.1885,1.1885,1.1885,1.1885,1.1885,1.1593,1.1626,1.1634,1.1674,1.1689,1.1717,1.173,1.1747,1.1763,1.1798,1.1819,1.183,1.1849,1.1875,1.1898,1.1902,1.1911,1.1915,1.192,1.1894,1.1891,1.1888,1.188,1.1917,1.1917,1.1945,1.1945,1.1945]}]]